カタログに戻る

BREEZE-M DEB

LostHEO
NORAD 34236·DEBRIS·🇷🇺 Russia

打ち上げ Feb 28, 2006 から Baikonur Cosmodrome

Loading…

次のパス (今後24時間)

TLE

古いSource: Space-Track

元期: Feb 17, 2026, 10:31 UTC

1 34236U 06006BB  26048.43884313  .00004582  00000-0  19347-2 0  9999
2 34236  51.6423 218.9090 4894716 247.2278  54.9809  5.70502861 40183

AllMySatでBREEZE-M DEBをリアルタイム追跡

Download on the App Store